Starlink 6105

operational
NORAD ID: 56118 Int'l Des: 2023-046 Owner: SPXS Country: US Constellation: starlink
LEOCIRCULAR

Starlink 6105について

説明を読み込み中...

リアルタイム位置

3D地球を読み込み中...

次回通過

高度履歴

Altitude vs Time

uPlot chart will show altitude changes over time

軌道要素

1 56118U 23046AB 25305.68371517 .06807709 92431-5 88847-3 0 9998
2 56118 42.9861 46.6150 0004626 313.3054 46.7451 16.34642607143815
Epoch: Nov 1, 2025 • Age: 72 hours

現在のステータス

Position data unavailable
打ち上げ日 Mar 29, 2023
運用期間 2.6 years
タイプ internet

技術仕様

分類 Payload
質量 305.00 kg
乾燥質量 290.00 kg
総質量 305.00 kg
長さ 0.20 m
直径 2.80 m
スパン 9.00 m
形状 Box + pan
製造者 SPXS
バスタイプ Starlink
フェーズステータス In Orbit
所有者/国 SPXS/US

大規模コンステレーション

Loading constellations...